This is the latest recevied weather packets stored in our database for station/object IZ1UQG-1. If no packets are shown the sender has not sent any weather packets the latest 10 day(s).
| Time | Temp. | Humidity | Pressure | Rain* | Wind** | Luminosity | Snow |
|---|---|---|---|---|---|---|---|
| 1777574045 | 18.33° C | 51% | 1022.2 hPa | 160.78 mm | - | - | - |
| 1777573745 | 18.89° C | 51% | 1022 hPa | 172.21 mm | - | - | - |
| 1777573445 | 18.89° C | 51% | 1022 hPa | 155.7 mm | - | - | - |
| 1777573145 | 18.89° C | 51% | 1022.1 hPa | 133.86 mm | - | - | - |
| 1777572845 | 18.89° C | 51% | 1021.7 hPa | 130.81 mm | - | - | - |
| 1777572545 | 18.89° C | 51% | 1021.7 hPa | 141.22 mm | - | - | - |
| 1777572245 | 19.44° C | 51% | 1021.5 hPa | 123.95 mm | - | - | - |
| 1777571945 | 19.44° C | 51% | 1021.6 hPa | 61.21 mm | - | - | - |
| 1777571645 | 19.44° C | 50% | 1021.3 hPa | 88.9 mm | - | - | - |
| 1777571345 | 19.44° C | 49% | 1021.3 hPa | 89.92 mm | - | - | - |
| 1777571045 | 20° C | 48% | 1021.3 hPa | 91.44 mm | - | - | - |
| 1777570745 | 20° C | 47% | 1021.1 hPa | 52.58 mm | - | - | - |
| 1777570445 | 20° C | 47% | 1021.1 hPa | 71.12 mm | - | - | - |
| 1777570145 | 20° C | 46% | 1021.3 hPa | 45.21 mm | - | - | - |
| 1777569845 | 20.56° C | 46% | 1021.1 hPa | 61.98 mm | - | - | - |
| 1777569545 | 20.56° C | 46% | 1021.2 hPa | 34.29 mm | - | - | - |
| 1777569245 | 20.56° C | 46% | 1021.3 hPa | 81.03 mm | - | - | - |
| 1777568945 | 20.56° C | 45% | 1021.3 hPa | 32.77 mm | - | - | - |
| 1777568645 | 20.56° C | 46% | 1021.2 hPa | 37.08 mm | - | - | - |
| 1777568345 | 20.56° C | 46% | 1021.2 hPa | 6.86 mm | - | - | - |
| 1777568045 | 20.56° C | 46% | 1021.1 hPa | 51.05 mm | - | - | - |
| 1777567745 | 20.56° C | 46% | 1021 hPa | 10.67 mm | - | - | - |
| 1777567445 | 20.56° C | 46% | 1021 hPa | 6.86 mm | - | - | - |
| 1777567145 | 20.56° C | 46% | 1021 hPa | 238.25 mm | - | - | - |
| 1777566845 | 20.56° C | 45% | 1021 hPa | 26.67 mm | - | - | - |
* Rain latest hour (hover to see other rain measurements)
** Current wind speed in m/s (hover to see current wind gust speed)